Regional Weather Roundup
Issued by NWS

Home | Current Version | Previous Version | Text Only | Print | Product List | Glossary Off
Versions: 1 2 3 4 5 6 7 8 9 10 11 12 13 14 15 16 17 18 19 20 21 22 23 24 25 26 27 28 29 30 31 32 33 34 35 36 37 38 39 40 41 42 43 44 45 46 47 48 49 50

000
ASUS43 KTOP 280008
RWRKS

WEATHER ROUNDUP FOR KANSAS
NATIONAL WEATHER SERVICE GOODLAND KS
700 PM CDT WED AUG 27 2014

NOTE:  "FAIR" INDICATES FEW OR NO CLOUDS BELOW 12,000 FEET WITH NO
SIGNIFICANT WEATHER AND/OR OBSTRUCTIONS TO VISIBILITY.

KSZ001>006-013>018-027>032-041>047-280100-
NORTHWEST KANSAS

CITY           SKY/WX    TMP DP  RH WIND       PRES   REMARKS
GOODLAND       PTSUNNY   81  62  52 S6        30.00F
6HR MIN TEMP:  74; 6HR MAX TEMP:  81; 6HR PCP: TRACE;

HAYS           CLOUDY    81  66  61 SE12      29.99F
HILL CITY      TSTM      71  68  90 E16       29.98F
6HR MIN TEMP:  69; 6HR MAX TEMP:  84; 6HR PCP:  1.39;

RUSSELL        PTSUNNY   79  68  69 SE10      29.98F
6HR MIN TEMP:  76; 6HR MAX TEMP:  82; 6HR PCP: TRACE;

$$

KSZ061>065-074>080-084>089-280100-
SOUTHWEST KANSAS

CITY           SKY/WX    TMP DP  RH WIND       PRES   REMARKS
DODGE CITY     CLOUDY    83  69  62 SE16G22   29.99F
6HR MIN TEMP:  80; 6HR MAX TEMP:  86; 6HR PCP: TRACE;

ELKHART          N/A     85  63  47 S7          N/A
GARDEN CITY    CLOUDY    77  71  82 S14       29.98F
6HR MIN TEMP:  69; 6HR MAX TEMP:  86; 6HR PCP:  0.67;

GREAT BEND     PTSUNNY   82  68  61 SE10      29.99F
LIBERAL        PTSUNNY   81  64  57 SE16      30.02R
PRATT          MOSUNNY   86  61  42 SE9       30.00F
$$

KSZ066>073-081>083-090>101-280100-
SOUTHEAST KANSAS

CITY           SKY/WX    TMP DP  RH WIND       PRES   REMARKS
CHANUTE        MOSUNNY   93  64  38 S9        29.99R
6HR MIN TEMP:  92; 6HR MAX TEMP:  97;

COFFEYVILLE    MOSUNNY   93  67  42 S8        29.97S HX  96
6HR MIN TEMP:  91; 6HR MAX TEMP:  96;

HUTCHINSON     CLOUDY    85  67  54 E6        29.99F
6HR MIN TEMP:  84; 6HR MAX TEMP:  88;

MEDICINE LODGE   N/A     90  61  37 SE8       29.96F
NEWTON         CLOUDY    88  61  40 SE5       30.04F
PARSONS        MOSUNNY   93  67  42 SW5       29.99S HX  96
6HR MIN TEMP:  92; 6HR MAX TEMP:  97;

WICHITA INTL   PTSUNNY   89  63  41 SE12      29.98S
6HR MIN TEMP:  87; 6HR MAX TEMP:  92;

WICHITA JABRA  MOSUNNY   89  62  40 S10       29.99S
6HR MIN TEMP:  86; 6HR MAX TEMP:  92;

WICHITA MCCONL MOSUNNY   90  62  39 SE10      29.99F
WINFIELD       SUNNY     90  65  43 SE8       29.99S
6HR MIN TEMP:  89; 6HR MAX TEMP:  94;

$$

KSZ007>012-019>026-033>040-048>060-102>105-280100-
NORTHEAST KANSAS

CITY           SKY/WX    TMP DP  RH WIND       PRES   REMARKS
CONCORDIA      PTSUNNY   80  74  81 E3        30.02R
6HR MIN TEMP:  78; 6HR MAX TEMP:  83; 6HR PCP: TRACE;

EMPORIA        MOSUNNY   89  67  47 E7        29.99S
6HR MIN TEMP:  89; 6HR MAX TEMP:  93;

LAWRENCE       CLOUDY    85  72  65 E8        30.01F
6HR MIN TEMP:  85; 6HR MAX TEMP:  91;

MANHATTAN      MOSUNNY   85  72  65 E13       30.00R
6HR MIN TEMP:  85; 6HR MAX TEMP:  91;

MARYSVILLE     CLOUDY    79  72  78 E6        30.02S
OLATHE IND     CLOUDY    83  73  72 E7        30.03F
6HR MIN TEMP:  83; 6HR MAX TEMP:  90;

OLATHE EXE     CLOUDY    82  72  71 SE8       30.03S
6HR MIN TEMP:  82; 6HR MAX TEMP:  87;

SALINA         CLOUDY    85  68  56 CALM      29.99F
6HR MIN TEMP:  85; 6HR MAX TEMP:  88;

TOPEKA BILLARD CLOUDY    84  72  67 NE7       30.01F
6HR MIN TEMP:  84; 6HR MAX TEMP:  89;

TOPEKA FORBES  PTSUNNY   82  63  52 E9        30.02S
6HR MIN TEMP:  82; 6HR MAX TEMP:  90;

$$



USA.gov is the U.S. government's official web portal to all federal, state and local government web resources and services.